Location: Ariel
(45.9570°N, 122.5700°W)
Time: 15:22:41
(UTC-07:00)

Transit 4A - Pass Details

Date: 29 July 2019
Orbit: 864 x 981 km, 66.8° (Epoch: 25 August)

Event Time Altitude Azimuth Distance (km) Brightness Sun altitude
Rises 04:03:01 0° 286° (WNW) 3,685 10.8 -15.2°
Reaches altitude 10° 04:07:10 10° 311° (NW) 2,740 10.4 -14.7°
Maximum altitude 04:10:18 14° 341° (NNW) 2,467 10.5 -14.3°
Drops below altitude 10° 04:13:26 10° 11° (N) 2,731 11.3 -14.0°
Sets 04:17:34 0° 36° (NE) 3,664 12.9 -13.5°
